Location: Newark
(36.6333°N, 138.1833°E)
Time: 09:08:54
(UTC+00:00)

M-CUBED/EXP-1 PRIME - Visible Passes

Search period start: 06 June 2020 00:00
Search period end: 16 June 2020 00:00
Orbit: 429 x 666 km, 101.7° (Epoch: 05 June)

Date Brightness Start Highest point End Pass type
(mag) Time Alt. Az. Time Alt. Az. Time Alt. Az.
06 Jun ? 13:23:52 33° NNW 13:23:52 33° NNW 13:25:56 10° NNW visible
07 Jun ? 13:18:40 35° NNW 13:18:40 35° NNW 13:20:47 10° NNW visible
08 Jun ? 13:13:28 35° N 13:13:28 35° N 13:15:35 10° NNW visible
09 Jun ? 13:08:15 33° N 13:08:15 33° N 13:10:22 10° N visible
10 Jun ? 13:03:02 30° NNE 13:03:02 30° NNE 13:05:07 10° N visible
11 Jun ? 12:57:49 26° NNE 12:57:49 26° NNE 12:59:49 10° N visible
12 Jun ? 12:52:36 23° NE 12:52:36 23° NE 12:54:29 10° N visible
13 Jun ? 12:47:22 19° NE 12:47:22 19° NE 12:49:05 10° NNE visible
13 Jun ? 14:23:01 10° WNW 14:23:01 10° WNW 14:23:01 10° WNW visible
14 Jun ? 12:42:08 16° NE 12:42:08 16° NE 12:43:37 10° NNE visible
14 Jun ? 14:17:47 12° NW 14:17:47 12° NW 14:18:08 10° NW visible
15 Jun ? 12:36:54 13° NE 12:36:54 13° NE 12:38:02 10° NNE visible
15 Jun ? 14:12:33 14° NW 14:12:33 14° NW 14:13:10 10° NW visible
